Regional Weather Roundup
Issued by NWS Boston, MA

Home | Current Version | Previous Version | Text Only | Print | Product List | Glossary On
Versions: 1 2 3 4 5 6 7 8 9 10 11 12 13 14 15 16 17 18 19 20 21 22 23 24 25 26 27 28 29 30 31 32 33 34 35 36 37 38 39 40 41 42 43 44 45 46 47 48 49 50
000
ASUS41 KBOX 281110
RWRBOX

REGIONAL WEATHER ROUNDUP
NATIONAL WEATHER SERVICE TAUNTON MA
700 AM EDT SAT MAY 28 2016

NOTE:  "FAIR" INDICATES FEW OR NO CLOUDS BELOW 12,000 FEET WITH NO
SIGNIFICANT WEATHER AND/OR OBSTRUCTIONS TO VISIBILITY.  THE FOLLOWING
OBSERVATION LOCATIONS DO NOT REPORT PRESENT WEATHER...PROVINCETOWN...
SMITHFIELD...BLOCK ISLAND...KEENE...AND OXFORD.

MAZALL-281200-
EASTERN MASSACHUSETTS

CITY           SKY/WX    TMP DP  RH WIND       PRES   REMARKS
BOSTON         MOSUNNY   70  60  70 SW9       30.06R
BEVERLY        PTSUNNY   68  60  75 W6        30.05R
LAWRENCE       MOSUNNY   70  63  78 SW3       30.07R
BEDFORD        MOSUNNY   69  62  78 SW3       30.06R
BLUE HILL        N/A     65  59  81 SW13      30.08R
NORWOOD        MOSUNNY   69  60  73 SW6       30.07R
MARSHFIELD     MOSUNNY   68  59  73 SW9G17    30.06R
PLYMOUTH       MOSUNNY   66  58  75 SW9       30.09R
TAUNTON        MOSUNNY   69  58  67 SW6       30.08R
NEW BEDFORD    CLOUDY    65  58  78 SW6       30.09R
$$

MAZALL-281200-
CAPE COD AND THE ISLANDS

CITY           SKY/WX    TMP DP  RH WIND       PRES   REMARKS
FALMOUTH       CLOUDY    64  59  82 SW16      30.11R
HYANNIS        CLOUDY    65  59  81 SW21G28   30.09R
CHATHAM        MOSUNNY   64  59  83 SW13G23   30.11R
PROVINCETOWN   MOSUNNY   62  57  83 SW15      30.08R
NANTUCKET      CLOUDY    65  60  84 S14       30.13S
MARTHAS VNYRD  MOSUNNY   63  59  87 SW13G20   30.12R
$$

MAZALL-281200-
CENTRAL AND WESTERN MASSACHUSETTS

CITY           SKY/WX    TMP DP  RH WIND       PRES   REMARKS
WORCESTER      SUNNY     68  62  81 W13       30.11R
FITCHBURG      CLOUDY    72  63  73 N6        30.08R
ORANGE         PTSUNNY   67  61  81 S5        30.10R
SPRINGFIELD    PTSUNNY   64  62  93 CALM      30.09R
WESTFIELD      CLOUDY    66  61  84 CALM      30.09R
NORTH ADAMS    FOG       65  64  97 CALM      30.11R VSB 1/4
PITTSFIELD     CLOUDY    66  63  90 CALM      30.11R FOG
$$

RIZALL-281200-
RHODE ISLAND

CITY           SKY/WX    TMP DP  RH WIND       PRES   REMARKS
PROVIDENCE     MOSUNNY   68  58  70 SW8       30.10R
NEWPORT        MOSUNNY   65  58  78 SW5       30.10R
BLOCK ISLAND   MOSUNNY   60  57  89 SW17        N/A
SMITHFIELD       N/A    N/A N/A N/A MISG        N/A
WESTERLY       CLOUDY    66  56  70 W6        30.12R
$$

CTZALL-281200-
CONNECTICUT

CITY           SKY/WX    TMP DP  RH WIND       PRES   REMARKS
BRADLEY INTL   PTSUNNY   68  61  78 S5        30.09R
HARTFORD       SUNNY     71  62  73 S5        30.10R
BRIDGEPORT     SUNNY     68  59  73 SW7       30.11R
DANBURY        MOSUNNY   70  64  81 W3        30.12R
GROTON         MOSUNNY   66  60  81 W10       30.10R
NEW HAVEN      MOSUNNY   67  59  75 VRB3      30.11R
CHESTER        FAIR      66  59  77 W8G15     30.11R
MERIDEN        SUNNY     68  59  73 S5        30.10R
WILLIMANTIC    SUNNY     66  59  78 CALM      30.11R
OXFORD         MOSUNNY   66  61  82 CALM      30.13R
$$

MEZ002-015-021-024-NHZ003-005-008-011-012-014-VTZ005-008-281200-
NORTHERN NEW ENGLAND

CITY           SKY/WX    TMP DP  RH WIND       PRES   REMARKS
PORTLAND ME    MOSUNNY   55  53  93 W5        30.05R
BANGOR ME      CLOUDY    59  53  80 CALM      30.03S
CONCORD NH     CLOUDY    64  60  87 CALM      30.06R
MANCHESTER NH  PTSUNNY   69  62  78 SW3       30.04R
NASHUA NH      CLOUDY    69  65  86 CALM      30.06R
PORTSMOUTH NH  PTSUNNY   61  57  85 NW1       30.03R
JAFFREY NH     CLOUDY    65  61  87 S6        30.11R
KEENE NH       CLOUDY    64  63  94 S5        30.10S
BURLINGTON VT  FAIR      72  65  78 CALM      30.07R
MT. WASHINGTON FOG       54  54 100 W33G43      N/A  VSB 0
$$

NYZ052-076-281200-
EASTERN NEW YORK

CITY           SKY/WX    TMP DP  RH WIND       PRES   REMARKS
ALBANY         MOSUNNY   71  67  87 CALM      30.09R
NEW YORK CITY  MOSUNNY   74  63  68 SW8       30.11R
$$

ANZALL-281200-
MARINE OBSERVATIONS

STATION/POSITION TIME  TEMP    WIND        PRES    VSBY  WAVE
                       AIR SEA DIR/SP/G                  HT/PER
                 (UTC) (F)     (DEG/KT/KT) (MB)    (MI)  (FT/S)
BOSTON BUOY      1050   61 56  220/  6/  6 1017.7R         1/ 3
BUZZARDS BAY     1000   60     220/ 21/ 22 1019.4R
NANTUCKET SOUND  1050   62 57  210/ 12/ 16 1019.5R         2/ 4
MASS BAY-STELLWA 1004   58 55                N/A    1 7/8  2/ 4
ISLE OF SHOALS   1100   58     310/  2/  2 1017.3R
S OF BLOCK IS    1025      56                N/A           4/ 6
$$

......................KEY.........................
  SKY/WX - SKY CONDITION/PRESENT WEATHER
  TMP    - TEMPERATURE IN FAHRENHEIT
  DWPT   - DEWPOINT IN FAHRENHEIT
  RH     - RELATIVE HUMIDITY IN PERCENT
  WIND   - DIRECTION AND SPEED IN MPH
  PRES   - MEAN SEA LEVEL PRESSURE IN INCHES OF HG
  WCI    - WIND CHILL INDEX
  VSB    - VISIBILITY IN MILES
  HX     - HEAT INDEX
  TC     - TEMPERATURE IN CELSIUS
  VRB    - VARIABLE WIND DIRECTION
  N/A    - NOT AVAILABLE



USA.gov is the U.S. government's official web portal to all federal, state and local government web resources and services.